Dillon, MT

9:58 PM MDT on June 25, 2017 (GMT -0600)
Dillon

Weather History for KDLN - November, 2013

Change the Weather History Date:

Saturday, November 30, 2013

  Actual Average Record
Temperature  
Mean Temperature 38 °F 23 °F  
Max Temperature 45 °F 33 °F 60 °F (1999)
Min Temperature 30 °F 14 °F -16 °F (2014)
Degree Days  
Heating Degree Days 27    
Month to date heating degree days 924  
Since 1 July heating degree days 1929  
Cooling Degree Days 0    
Month to date cooling degree days 0  
Year to date cooling degree days 247  
Moisture  
Dew Point 26 °F    
Average Humidity 60    
Maximum Humidity 75    
Minimum Humidity 45    
Precipitation  
Precipitation 0.00 in 0.01 in 0.15 in (1970)
Month to date precipitation 0.08 0.37  
Year to date precipitation 9.81 10.30  
Snow  
Snow 0.00 in - - ()
Snow Depth 0.00 in    
Sea Level Pressure  
Sea Level Pressure 30.18 in    
Wind  
Wind Speed 14 mph (SSW)    
Max Wind Speed 20 mph    
Max Gust Speed 24 mph    
Visibility 10 miles    
Events      
T = Trace of Precipitation, MM = Missing Value Source: NWS Daily Summary

Daily Weather History Graph

Daily Weather History Graph

Search for Another Location

Airport or City:

Trip Planner

Search our weather history database for the weather conditions in past years. The results will help you decide how hot, cold, wet, or windy it might be!

Date:

Astronomy

Nov. 30, 2013 Rise Set
Actual Time 7:48 AM MST 4:49 PM MST
Civil Twilight 7:15 AM MST 5:22 PM MST
Nautical Twilight 6:38 AM MST 5:59 PM MST
Astronomical Twilight 6:02 AM MST 6:35 PM MST
Moon 4:57 AM MST (11/30) 3:21 PM MST (11/30)
Length of Visible Light 10h 07m
Length of Day
9h 01m
Waning Crescent, 7% of the Moon is Illuminated
Nov 30
Waning Crescent
Dec 2
New
Dec 9
First Quarter
Dec 17
Full
Dec 25
Last Quarter

Hourly Weather History & Observations

Time (MST) Temp. Windchill Dew Point Humidity Pressure Visibility Wind Dir Wind Speed Gust Speed Precip Events Conditions
12:53 AM 37.0 °F 30.4 °F 23.0 °F 57% 30.15 in 10.0 mi South 9.2 mph - N/A   Overcast
1:53 AM 37.0 °F 27.4 °F 23.0 °F 57% 30.14 in 10.0 mi SSW 17.3 mph - N/A   Overcast
2:53 AM 37.0 °F 27.7 °F 24.1 °F 59% 30.14 in 10.0 mi SSW 16.1 mph - N/A   Overcast
3:53 AM 33.1 °F 24.4 °F 23.0 °F 66% 30.17 in 10.0 mi SSW 11.5 mph - N/A   Partly Cloudy
4:53 AM 34.0 °F 24.2 °F 24.1 °F 67% 30.20 in 10.0 mi SSW 15.0 mph - N/A   Mostly Cloudy
5:53 AM 33.1 °F 23.4 °F 24.1 °F 70% 30.21 in 10.0 mi SSW 13.8 mph - N/A   Clear
6:53 AM 34.0 °F 24.6 °F 24.1 °F 67% 30.23 in 10.0 mi SSW 13.8 mph - N/A   Overcast
7:53 AM 30.0 °F 24.1 °F 23.0 °F 75% 30.25 in 10.0 mi SSW 5.8 mph - N/A   Clear
8:53 AM 36.0 °F 27.5 °F 25.0 °F 64% 30.25 in 10.0 mi SSW 12.7 mph - N/A   Mostly Cloudy
9:53 AM 41.0 °F 32.8 °F 25.0 °F 53% 30.22 in 10.0 mi SW 16.1 mph - N/A   Mostly Cloudy
10:53 AM 39.9 °F 31.4 °F 24.1 °F 53% 30.22 in 10.0 mi SW 16.1 mph - N/A   Scattered Clouds
11:53 AM 43.0 °F 36.0 °F 25.0 °F 49% 30.18 in 10.0 mi SW 13.8 mph - N/A   Mostly Cloudy
12:53 PM 45.0 °F 38.2 °F 25.0 °F 46% 30.14 in 10.0 mi SW 15.0 mph - N/A   Clear
1:53 PM 45.0 °F 38.9 °F 25.0 °F 46% 30.13 in 10.0 mi SW 12.7 mph - N/A   Overcast
2:53 PM 44.1 °F 37.7 °F 25.0 °F 47% 30.13 in 10.0 mi SW 12.7 mph - N/A   Overcast
3:53 PM 43.0 °F 36.8 °F 28.0 °F 56% 30.16 in 10.0 mi SW 11.5 mph - N/A   Overcast
4:53 PM 41.0 °F 33.1 °F 28.9 °F 62% 30.17 in 10.0 mi SSW 15.0 mph - N/A   Overcast
5:53 PM 39.9 °F 32.1 °F 28.9 °F 65% 30.18 in 10.0 mi SSW 13.8 mph - N/A   Overcast
6:53 PM 39.0 °F 32.3 °F 28.9 °F 67% 30.19 in 10.0 mi SSW 10.4 mph - N/A   Overcast
7:53 PM 37.9 °F 27.9 °F 28.9 °F 70% 30.20 in 10.0 mi SW 19.6 mph - N/A   Clear
8:53 PM 37.9 °F 29.6 °F 28.9 °F 70% 30.18 in 10.0 mi SW 13.8 mph - N/A   Scattered Clouds
9:53 PM 37.9 °F 28.9 °F 28.9 °F 70% 30.16 in 10.0 mi SW 16.1 mph - N/A   Overcast
10:53 PM 35.1 °F 24.8 °F 28.0 °F 76% 30.16 in 10.0 mi SW 17.3 mph - N/A   Clear
11:53 PM 36.0 °F 28.5 °F 28.0 °F 73% 30.16 in 10.0 mi SSW 10.4 mph - N/A   Mostly Cloudy